Ernest A. Love Field
KPRC : rendu visible

Aérodrome :











RETROUVEZ-NOUS SUR...

 
LOGIN :

S'inscrire | Disclaimer

   EN    FR    IT 

 









Légende :    VFR   VFR Marginal   IFR   IFR Intensif   IFR Très Intensif
Visi : 
Plafond : 
>= 8 km
>= 3000ft
5 à 8 km
1000 à 3000 ft
1500m à 5 km
500 à 1000 ft
800 à 1500m
200 à 500 ft
< 800m
< 200 ft
Symboles :   Orages  Brouillard  Fortes neiges  Fortes précipitations  Vent > 20 kt






- Altitude de l'aérodrome : 5045 ft
- Code IATA : PRC


KPRC - Ernest A. Love Field

DERNIER METAR :
  • 261653Z VRB03KT 10SM CLR 23/M09 A3012 RMK AO2 SLP126 T02331089

METARs EXPIRÉS :
  • 261553Z VRB05KT 10SM CLR 21/M07 A3013 RMK AO2 SLP130 T02111072
  • 261453Z 35003KT 10SM CLR 19/M08 A3012 RMK AO2 SLP128 T01891078 51008

TAF KPRC
Valide du 26 à 18h jusqu'au 27 à 18h UTC


261738Z 2618/2718 VRB05KT P6SM SKC
FM262000 28008KT P6SM SKC
FM270200 VRB05KT P6SM SKC
FIR KZAB / Amérique du Nord



MET'MAP, la Météo Aéronautique d'un coup d'oeil ! - Copyright ORBIFLY Décembre 2007 - Disclaimer

ORBIFLY MET'MAP TEAM :

Programmation & Développement : Alexandra Zaïnal
Sur une idée originale de : Baudouin d'Aumeries
Assistance à la programmation : Marc-Olivier Méhu
Soutien technique & logistique : Manuel Goepfert

Contact : metmap@orbifly.com




SOURCES & CREDITS :

   NOAA       Earth
Advisory